Time,TemperatureF,DewpointF,PressureIn,WindDirection,WindDirectionDegrees,WindSpeedMPH,WindSpeedGustMPH,Humidity,HourlyPrecipIn,Conditions,Clouds,dailyrainin,SoftwareType,DateUTC
2013-08-19 00:00:00,63.9,58.6,30.03,South,180,0.0,1.0,83,0.00,CLR,,0.00,WeatherDisplay:10.37,2013-08-19 05:00:00,
2013-08-19 00:05:00,63.9,58.6,30.03,South,180,0.0,1.0,83,0.00,CLR,,0.00,WeatherDisplay:10.37,2013-08-19 05:05:00,
2013-08-19 00:10:00,63.9,58.6,30.03,South,180,0.0,0.0,83,0.00,CLR,,0.00,WeatherDisplay:10.37,2013-08-19 05:10:00,
2013-08-19 00:15:00,63.9,58.6,30.03,South,180,0.0,1.0,83,0.00,CLR,,0.00,WeatherDisplay:10.37,2013-08-19 05:15:00,
2013-08-19 00:20:00,64.0,58.4,30.03,South,180,0.0,1.0,82,0.00,CLR,,0.00,WeatherDisplay:10.37,2013-08-19 05:20:00,
2013-08-19 00:25:00,64.2,58.6,30.03,South,180,0.0,1.0,82,0.00,CLR,,0.00,WeatherDisplay:10.37,2013-08-19 05:25:00,
2013-08-19 00:30:00,64.2,58.6,30.03,South,180,0.0,0.0,82,0.00,CLR,,0.00,WeatherDisplay:10.37,2013-08-19 05:30:00,
2013-08-19 00:35:00,64.0,58.4,30.03,South,180,0.0,0.0,82,0.00,CLR,,0.00,WeatherDisplay:10.37,2013-08-19 05:35:00,
2013-08-19 00:40:00,64.0,58.4,30.03,South,180,0.0,0.0,82,0.00,CLR,,0.00,WeatherDisplay:10.37,2013-08-19 05:40:00,
2013-08-19 00:45:00,63.9,58.3,30.03,South,180,0.0,0.0,82,0.00,CLR,,0.00,WeatherDisplay:10.37,2013-08-19 05:45:00,
2013-08-19 00:50:00,63.7,58.1,30.03,South,180,0.0,0.0,82,0.00,CLR,,0.00,WeatherDisplay:10.37,2013-08-19 05:50:00,
2013-08-19 00:55:00,63.9,58.6,30.03,South,180,2.0,3.0,83,0.00,CLR,,0.00,WeatherDisplay:10.37,2013-08-19 05:55:00,
2013-08-19 01:00:00,64.2,58.6,30.02,South,180,2.0,5.0,82,0.00,CLR,,0.00,WeatherDisplay:10.37,2013-08-19 06:00:00,
2013-08-19 01:05:00,64.5,58.5,30.02,South,180,3.0,5.0,81,0.00,CLR,,0.00,WeatherDisplay:10.37,2013-08-19 06:05:00,
2013-08-19 01:10:00,64.8,58.5,30.02,South,180,3.0,5.0,80,0.00,CLR,,0.00,WeatherDisplay:10.37,2013-08-19 06:10:00,
2013-08-19 01:15:00,65.2,58.5,30.02,South,180,3.0,6.0,79,0.00,CLR,,0.00,WeatherDisplay:10.37,2013-08-19 06:15:00,
2013-08-19 01:20:00,65.5,58.5,30.02,South,180,2.0,7.0,78,0.00,CLR,,0.00,WeatherDisplay:10.37,2013-08-19 06:20:00,
2013-08-19 01:25:00,65.6,58.2,30.02,South,180,3.0,6.0,77,0.00,CLR,,0.00,WeatherDisplay:10.37,2013-08-19 06:25:00,
2013-08-19 01:30:00,65.8,58.0,30.03,South,191,3.0,5.0,76,0.00,CLR,,0.00,WeatherDisplay:10.37,2013-08-19 06:30:00,
2013-08-19 01:35:00,66.0,58.2,30.03,SSW,202,1.0,7.0,76,0.00,CLR,,0.00,WeatherDisplay:10.37,2013-08-19 06:35:00,
2013-08-19 01:40:00,65.0,56.1,30.17,SW,229,0.0,0.0,73,0.00,CLR,,0.00,WeatherDisplay:10.37,2013-08-19 06:40:00,
2013-08-19 01:45:00,66.1,58.3,30.03,SSW,202,3.0,7.0,76,0.00,CLR,,0.00,WeatherDisplay:10.37,2013-08-19 06:45:00,
2013-08-19 01:50:00,66.1,58.3,30.03,SSW,202,1.0,5.0,76,0.00,CLR,,0.00,WeatherDisplay:10.37,2013-08-19 06:50:00,
2013-08-19 01:55:00,66.3,58.1,30.03,SSW,202,1.0,5.0,75,0.00,CLR,,0.00,WeatherDisplay:10.37,2013-08-19 06:55:00,
2013-08-19 02:00:00,66.6,58.1,30.03,SSW,205,5.0,10.0,74,0.00,CLR,,0.00,WeatherDisplay:10.37,2013-08-19 07:00:00,
2013-08-19 02:02:00,65.0,56.1,30.17,SW,229,0.0,0.0,73,0.00,CLR,,0.00,WeatherDisplay:10.37,2013-08-19 07:02:00,
2013-08-19 02:05:00,66.9,57.6,30.03,SSW,201,3.0,10.0,72,0.00,CLR,,0.00,WeatherDisplay:10.37,2013-08-19 07:05:00,
2013-08-19 02:10:00,67.3,57.6,30.03,SSW,198,3.0,9.0,71,0.00,CLR,,0.00,WeatherDisplay:10.37,2013-08-19 07:10:00,
2013-08-19 02:15:00,67.4,57.7,30.02,SSW,201,3.0,6.0,71,0.00,CLR,,0.00,WeatherDisplay:10.37,2013-08-19 07:15:00,
2013-08-19 02:20:00,67.6,57.5,30.02,SSW,202,1.0,7.0,70,0.00,CLR,,0.00,WeatherDisplay:10.37,2013-08-19 07:20:00,
2013-08-19 02:25:00,67.6,57.5,30.02,SSW,202,2.0,6.0,70,0.00,CLR,,0.00,WeatherDisplay:10.37,2013-08-19 07:25:00,
2013-08-19 02:30:00,67.6,57.5,30.01,SSW,202,1.0,6.0,70,0.00,CLR,,0.00,WeatherDisplay:10.37,2013-08-19 07:30:00,
2013-08-19 02:31:00,65.0,56.1,30.17,SW,229,0.0,0.0,73,0.00,CLR,,0.00,WeatherDisplay:10.37,2013-08-19 07:31:00,
2013-08-19 02:35:00,67.6,57.5,30.01,SSW,202,2.0,6.0,70,0.00,CLR,,0.00,WeatherDisplay:10.37,2013-08-19 07:35:00,
2013-08-19 02:40:00,67.4,57.3,30.01,SSW,202,3.0,9.0,70,0.00,CLR,,0.00,WeatherDisplay:10.37,2013-08-19 07:40:00,
2013-08-19 02:45:00,67.3,57.6,30.00,SSW,199,5.0,7.0,71,0.00,CLR,,0.00,WeatherDisplay:10.37,2013-08-19 07:45:00,
2013-08-19 02:50:00,67.3,57.6,30.00,SSW,198,1.0,10.0,71,0.00,CLR,,0.00,WeatherDisplay:10.37,2013-08-19 07:50:00,
2013-08-19 02:52:00,65.0,56.1,30.17,SW,229,0.0,0.0,73,0.00,CLR,,0.00,WeatherDisplay:10.37,2013-08-19 07:52:00,
2013-08-19 02:55:00,67.1,57.4,30.00,SSW,196,5.0,10.0,71,0.00,CLR,,0.00,WeatherDisplay:10.37,2013-08-19 07:55:00,
2013-08-19 03:00:00,67.1,57.4,30.00,SSW,196,3.0,9.0,71,0.00,CLR,,0.00,WeatherDisplay:10.37,2013-08-19 08:00:00,
2013-08-19 03:05:00,66.9,57.6,30.00,SSW,202,3.0,9.0,72,0.00,CLR,,0.00,WeatherDisplay:10.37,2013-08-19 08:05:00,
2013-08-19 03:10:00,66.9,57.6,30.00,SSW,199,1.0,11.0,72,0.00,CLR,,0.00,WeatherDisplay:10.37,2013-08-19 08:10:00,
2013-08-19 03:15:00,66.9,57.6,30.00,SSW,196,3.0,10.0,72,0.00,CLR,,0.00,WeatherDisplay:10.37,2013-08-19 08:15:00,
2013-08-19 03:20:00,66.9,57.6,30.00,SSW,201,1.0,7.0,72,0.00,CLR,,0.00,WeatherDisplay:10.37,2013-08-19 08:20:00,
2013-08-19 03:25:00,66.9,57.6,30.00,SSW,205,6.0,10.0,72,0.00,CLR,,0.00,WeatherDisplay:10.37,2013-08-19 08:25:00,
2013-08-19 03:30:00,66.9,57.6,30.00,SSW,207,5.0,10.0,72,0.00,CLR,,0.00,WeatherDisplay:10.37,2013-08-19 08:30:00,
2013-08-19 03:35:00,66.9,57.6,30.00,SSW,206,3.0,9.0,72,0.00,CLR,,0.00,WeatherDisplay:10.37,2013-08-19 08:35:00,
2013-08-19 03:40:00,66.9,57.6,30.00,SSW,197,5.0,10.0,72,0.00,CLR,,0.00,WeatherDisplay:10.37,2013-08-19 08:40:00,
2013-08-19 03:45:00,66.9,58.0,30.00,South,191,2.0,7.0,73,0.00,CLR,,0.00,WeatherDisplay:10.37,2013-08-19 08:45:00,
2013-08-19 03:50:00,66.8,57.9,30.00,SSW,193,1.0,7.0,73,0.00,CLR,,0.00,WeatherDisplay:10.37,2013-08-19 08:50:00,
2013-08-19 03:55:00,66.8,57.9,30.00,South,188,3.0,10.0,73,0.00,CLR,,0.00,WeatherDisplay:10.37,2013-08-19 08:55:00,
2013-08-19 04:00:00,66.8,57.9,30.00,SSW,193,3.0,7.0,73,0.00,CLR,,0.00,WeatherDisplay:10.37,2013-08-19 09:00:00,
2013-08-19 04:05:00,66.8,57.9,30.00,SSW,204,2.0,6.0,73,0.00,CLR,,0.00,WeatherDisplay:10.37,2013-08-19 09:05:00,
2013-08-19 04:10:00,66.9,58.0,30.00,SSW,203,2.0,6.0,73,0.00,CLR,,0.00,WeatherDisplay:10.37,2013-08-19 09:10:00,
2013-08-19 04:15:00,66.9,58.0,30.00,South,191,3.0,7.0,73,0.00,CLR,,0.00,WeatherDisplay:10.37,2013-08-19 09:15:00,
2013-08-19 04:20:00,66.9,58.0,30.00,South,180,0.0,6.0,73,0.00,CLR,,0.00,WeatherDisplay:10.37,2013-08-19 09:20:00,
2013-08-19 04:25:00,67.1,58.2,30.00,South,180,3.0,5.0,73,0.00,CLR,,0.00,WeatherDisplay:10.37,2013-08-19 09:25:00,
2013-08-19 04:30:00,67.1,58.2,30.00,South,183,3.0,6.0,73,0.00,CLR,,0.00,WeatherDisplay:10.37,2013-08-19 09:30:00,
2013-08-19 04:35:00,67.3,58.3,30.00,SSW,195,2.0,7.0,73,0.00,CLR,,0.00,WeatherDisplay:10.37,2013-08-19 09:35:00,
2013-08-19 04:40:00,67.4,58.4,30.00,SSW,202,2.0,9.0,73,0.00,CLR,,0.00,WeatherDisplay:10.37,2013-08-19 09:40:00,
2013-08-19 04:42:00,65.0,56.1,30.17,SW,229,0.0,0.0,73,0.00,CLR,,0.00,WeatherDisplay:10.37,2013-08-19 09:42:00,
2013-08-19 04:45:00,67.6,58.2,30.00,SSW,202,3.0,10.0,72,0.00,CLR,,0.00,WeatherDisplay:10.37,2013-08-19 09:45:00,
2013-08-19 04:50:00,67.6,58.2,30.00,SSW,202,3.0,11.0,72,0.00,CLR,,0.00,WeatherDisplay:10.37,2013-08-19 09:50:00,
2013-08-19 04:55:00,67.8,58.4,30.00,SSW,208,2.0,9.0,72,0.00,CLR,,0.00,WeatherDisplay:10.37,2013-08-19 09:55:00,
2013-08-19 05:00:00,67.8,58.8,29.99,SSW,206,3.0,7.0,73,0.00,CLR,,0.00,WeatherDisplay:10.37,2013-08-19 10:00:00,
2013-08-19 05:05:00,67.6,58.6,29.99,SSW,200,0.0,5.0,73,0.00,CLR,,0.00,WeatherDisplay:10.37,2013-08-19 10:05:00,
2013-08-19 05:10:00,67.6,58.6,29.99,SSW,202,1.0,4.0,73,0.00,CLR,,0.00,WeatherDisplay:10.37,2013-08-19 10:10:00,
2013-08-19 05:15:00,67.4,58.4,29.99,SSW,202,0.0,3.0,73,0.00,CLR,,0.00,WeatherDisplay:10.37,2013-08-19 10:15:00,
2013-08-19 05:20:00,67.1,58.5,29.99,SSW,202,2.0,4.0,74,0.00,CLR,,0.00,WeatherDisplay:10.37,2013-08-19 10:20:00,
2013-08-19 05:25:00,66.8,58.6,29.99,South,188,3.0,6.0,75,0.00,CLR,,0.00,WeatherDisplay:10.37,2013-08-19 10:25:00,
2013-08-19 05:30:00,66.4,58.2,29.98,South,183,2.0,9.0,75,0.00,CLR,,0.00,WeatherDisplay:10.37,2013-08-19 10:30:00,
2013-08-19 05:35:00,66.3,58.5,29.98,SSW,202,1.0,5.0,76,0.00,CLR,,0.00,WeatherDisplay:10.37,2013-08-19 10:35:00,
2013-08-19 05:40:00,66.1,58.3,29.98,SW,214,0.0,4.0,76,0.00,CLR,,0.00,WeatherDisplay:10.37,2013-08-19 10:40:00,
2013-08-19 05:45:00,66.0,58.2,29.98,South,186,1.0,4.0,76,0.00,CLR,,0.00,WeatherDisplay:10.37,2013-08-19 10:45:00,
2013-08-19 05:50:00,66.0,58.6,29.98,South,180,2.0,6.0,77,0.00,CLR,,0.00,WeatherDisplay:10.37,2013-08-19 10:50:00,
2013-08-19 05:55:00,66.0,58.6,29.98,South,180,2.0,5.0,77,0.00,CLR,,0.00,WeatherDisplay:10.37,2013-08-19 10:55:00,
2013-08-19 06:00:00,66.1,58.3,29.98,South,190,2.0,7.0,76,0.00,CLR,,0.00,WeatherDisplay:10.37,2013-08-19 11:00:00,
2013-08-19 06:05:00,66.0,58.6,29.98,South,191,0.0,3.0,77,0.00,CLR,,0.00,WeatherDisplay:10.37,2013-08-19 11:05:00,
2013-08-19 06:10:00,65.5,58.5,29.98,South,180,0.0,4.0,78,0.00,CLR,,0.00,WeatherDisplay:10.37,2013-08-19 11:10:00,
2013-08-19 06:15:00,65.0,58.3,29.98,South,180,0.0,1.0,79,0.00,CLR,,0.00,WeatherDisplay:10.37,2013-08-19 11:15:00,
2013-08-19 06:20:00,64.5,58.2,29.98,South,180,1.0,3.0,80,0.00,CLR,,0.00,WeatherDisplay:10.37,2013-08-19 11:20:00,
2013-08-19 06:25:00,64.0,58.1,29.98,South,180,0.0,2.0,81,0.00,CLR,,0.00,WeatherDisplay:10.37,2013-08-19 11:25:00,
2013-08-19 06:30:00,63.9,58.3,29.98,South,180,1.0,2.0,82,0.00,CLR,,0.00,WeatherDisplay:10.37,2013-08-19 11:30:00,
2013-08-19 06:35:00,63.9,58.6,29.98,South,180,0.0,3.0,83,0.00,CLR,,0.00,WeatherDisplay:10.37,2013-08-19 11:35:00,
2013-08-19 06:40:00,64.0,58.7,29.98,South,180,2.0,5.0,83,0.00,CLR,,0.00,WeatherDisplay:10.37,2013-08-19 11:40:00,
2013-08-19 06:45:00,64.3,58.7,29.98,South,180,3.0,6.0,82,0.00,CLR,,0.00,WeatherDisplay:10.37,2013-08-19 11:45:00,
2013-08-19 06:50:00,64.7,58.7,29.98,South,180,3.0,6.0,81,0.00,CLR,,0.00,WeatherDisplay:10.37,2013-08-19 11:50:00,
2013-08-19 06:55:00,64.8,58.5,29.98,South,180,3.0,6.0,80,0.00,CLR,,0.00,WeatherDisplay:10.37,2013-08-19 11:55:00,
2013-08-19 07:00:00,64.8,58.5,29.98,South,180,3.0,6.0,80,0.00,CLR,,0.00,WeatherDisplay:10.37,2013-08-19 12:00:00,
2013-08-19 07:05:00,65.0,58.7,29.98,South,180,2.0,6.0,80,0.00,CLR,,0.00,WeatherDisplay:10.37,2013-08-19 12:05:00,
2013-08-19 07:10:00,65.0,58.7,29.98,South,180,2.0,6.0,80,0.00,CLR,,0.00,WeatherDisplay:10.37,2013-08-19 12:10:00,
2013-08-19 07:15:00,65.2,58.9,29.98,South,180,3.0,7.0,80,0.00,CLR,,0.00,WeatherDisplay:10.37,2013-08-19 12:15:00,
2013-08-19 07:20:00,65.3,59.0,29.98,South,180,3.0,6.0,80,0.00,CLR,,0.00,WeatherDisplay:10.37,2013-08-19 12:20:00,
2013-08-19 07:25:00,65.6,59.3,29.98,South,180,3.0,6.0,80,0.00,CLR,,0.00,WeatherDisplay:10.37,2013-08-19 12:25:00,
2013-08-19 07:30:00,65.8,59.5,29.98,South,180,1.0,5.0,80,0.00,CLR,,0.00,WeatherDisplay:10.37,2013-08-19 12:30:00,
2013-08-19 07:35:00,66.0,59.7,29.98,South,180,3.0,5.0,80,0.00,CLR,,0.00,WeatherDisplay:10.37,2013-08-19 12:35:00,
2013-08-19 07:40:00,66.3,59.6,29.98,South,191,3.0,7.0,79,0.00,CLR,,0.00,WeatherDisplay:10.37,2013-08-19 12:40:00,
2013-08-19 07:45:00,66.6,59.5,29.98,SSW,193,3.0,7.0,78,0.00,CLR,,0.00,WeatherDisplay:10.37,2013-08-19 12:45:00,
2013-08-19 07:50:00,66.8,59.7,29.98,SSW,192,3.0,10.0,78,0.00,CLR,,0.00,WeatherDisplay:10.37,2013-08-19 12:50:00,
2013-08-19 07:55:00,66.9,59.8,29.98,SSW,199,3.0,9.0,78,0.00,CLR,,0.00,WeatherDisplay:10.37,2013-08-19 12:55:00,
2013-08-19 08:00:00,67.1,59.6,29.98,SSW,200,3.0,11.0,77,0.00,CLR,,0.00,WeatherDisplay:10.37,2013-08-19 13:00:00,
2013-08-19 08:05:00,67.1,59.6,29.98,SSW,194,3.0,9.0,77,0.00,CLR,,0.00,WeatherDisplay:10.37,2013-08-19 13:05:00,
2013-08-19 08:10:00,67.3,59.8,29.98,South,188,3.0,8.0,77,0.00,CLR,,0.00,WeatherDisplay:10.37,2013-08-19 13:10:00,
2013-08-19 08:15:00,67.4,59.9,29.97,South,185,5.0,10.0,77,0.00,CLR,,0.00,WeatherDisplay:10.37,2013-08-19 13:15:00,
2013-08-19 08:20:00,67.6,60.1,29.97,South,185,6.0,11.0,77,0.00,CLR,,0.00,WeatherDisplay:10.37,2013-08-19 13:20:00,
2013-08-19 08:25:00,67.9,60.1,29.97,South,191,5.0,9.0,76,0.00,CLR,,0.00,WeatherDisplay:10.37,2013-08-19 13:25:00,
2013-08-19 08:30:00,68.3,60.4,29.97,SSW,195,7.0,12.0,76,0.00,CLR,,0.00,WeatherDisplay:10.37,2013-08-19 13:30:00,
2013-08-19 08:35:00,68.6,60.4,29.97,SSW,196,10.0,14.0,75,0.00,CLR,,0.00,WeatherDisplay:10.37,2013-08-19 13:35:00,
2013-08-19 08:40:00,69.1,60.5,29.97,SSW,199,5.0,14.0,74,0.00,CLR,,0.00,WeatherDisplay:10.37,2013-08-19 13:40:00,
2013-08-19 08:45:00,69.8,60.8,29.97,South,191,9.0,16.0,73,0.00,CLR,,0.00,WeatherDisplay:10.37,2013-08-19 13:45:00,
2013-08-19 08:54:00,70.6,61.1,29.97,SSW,192,6.9,7.0,72,0.00,CLR,,0.00,WeatherDisplay:10.37,2013-08-19 13:54:00,
2013-08-19 08:59:00,70.9,61.4,29.98,SSE,168,6.9,6.9,72,0.00,CLR,,0.00,WeatherDisplay:10.37,2013-08-19 13:59:00,
2013-08-19 09:04:00,71.1,61.2,29.98,SSW,204,6.0,6.9,71,0.00,CLR,,0.00,WeatherDisplay:10.37,2013-08-19 14:04:00,
2013-08-19 09:09:00,71.1,61.2,29.98,SSW,192,6.9,6.9,71,0.00,CLR,,0.00,WeatherDisplay:10.37,2013-08-19 14:09:00,
2013-08-19 09:14:00,71.3,61.4,29.98,SSE,168,11.0,11.0,71,0.00,CLR,,0.00,WeatherDisplay:10.37,2013-08-19 14:14:00,
2013-08-19 09:19:00,71.6,61.7,29.98,SSW,192,4.0,4.0,71,0.00,CLR,,0.00,WeatherDisplay:10.37,2013-08-19 14:19:00,
2013-08-19 09:24:00,71.6,61.3,29.98,SSW,211,5.8,5.8,70,0.00,CLR,,0.00,WeatherDisplay:10.37,2013-08-19 14:24:00,
2013-08-19 09:29:00,71.6,61.3,29.98,SSW,211,10.4,10.4,70,0.00,CLR,,0.00,WeatherDisplay:10.37,2013-08-19 14:29:00,
2013-08-19 09:34:00,71.5,61.2,29.98,SSW,209,10.4,10.4,70,0.00,CLR,,0.00,WeatherDisplay:10.37,2013-08-19 14:34:00,
2013-08-19 09:39:00,71.3,61.4,29.98,SSW,208,5.8,5.8,71,0.00,CLR,,0.00,WeatherDisplay:10.37,2013-08-19 14:39:00,
2013-08-19 09:44:00,71.1,61.2,29.98,SSW,200,10.0,10.0,71,0.00,CLR,,0.00,WeatherDisplay:10.37,2013-08-19 14:44:00,
2013-08-19 09:49:00,70.8,60.9,29.99,SSW,211,10.4,10.4,71,0.00,CLR,,0.00,WeatherDisplay:10.37,2013-08-19 14:49:00,
2013-08-19 09:54:00,70.8,61.3,29.99,South,188,4.0,4.0,72,0.00,CLR,,0.00,WeatherDisplay:10.37,2013-08-19 14:54:00,
2013-08-19 09:59:00,70.8,61.3,29.99,SSW,211,5.0,5.0,72,0.00,CLR,,0.00,WeatherDisplay:10.37,2013-08-19 14:59:00,
2013-08-19 10:04:00,70.9,61.4,29.99,SSW,195,9.2,9.2,72,0.00,CLR,,0.00,WeatherDisplay:10.37,2013-08-19 15:04:00,
2013-08-19 10:09:00,71.3,61.4,29.99,South,181,5.8,5.8,71,0.00,CLR,,0.00,WeatherDisplay:10.37,2013-08-19 15:09:00,
2013-08-19 10:14:00,71.6,61.7,29.99,South,184,5.8,5.8,71,0.00,CLR,,0.00,WeatherDisplay:10.37,2013-08-19 15:14:00,
2013-08-19 10:19:00,71.8,61.5,29.99,SW,228,5.8,5.8,70,0.00,CLR,,0.00,WeatherDisplay:10.37,2013-08-19 15:19:00,
2013-08-19 10:24:00,72.1,62.2,29.99,South,175,6.0,6.0,71,0.00,CLR,,0.00,WeatherDisplay:10.37,2013-08-19 15:24:00,
2013-08-19 10:29:00,72.1,62.2,29.99,South,184,7.0,7.0,71,0.00,CLR,,0.00,WeatherDisplay:10.37,2013-08-19 15:29:00,
2013-08-19 10:34:00,72.3,62.0,29.99,SSW,210,11.5,11.5,70,0.00,CLR,,0.00,WeatherDisplay:10.37,2013-08-19 15:34:00,
2013-08-19 10:39:00,72.7,62.3,29.99,SW,218,9.2,9.2,70,0.00,CLR,,0.00,WeatherDisplay:10.37,2013-08-19 15:39:00,
2013-08-19 10:44:00,73.0,62.6,29.99,South,182,9.2,9.2,70,0.00,CLR,,0.00,WeatherDisplay:10.37,2013-08-19 15:44:00,
2013-08-19 10:49:00,73.9,62.7,29.99,SSW,206,4.6,4.6,68,0.00,CLR,,0.00,WeatherDisplay:10.37,2013-08-19 15:49:00,
2013-08-19 10:54:00,73.5,62.3,29.99,South,188,8.1,8.1,68,0.00,CLR,,0.00,WeatherDisplay:10.37,2013-08-19 15:54:00,
2013-08-19 10:59:00,73.7,62.5,29.99,South,190,6.0,6.0,68,0.00,CLR,,0.00,WeatherDisplay:10.37,2013-08-19 15:59:00,
2013-08-19 11:04:00,74.2,63.0,29.99,SSW,207,6.0,6.0,68,0.00,CLR,,0.00,WeatherDisplay:10.37,2013-08-19 16:04:00,
2013-08-19 11:09:00,74.6,62.9,29.99,South,174,12.7,12.7,67,0.00,CLR,,0.00,WeatherDisplay:10.37,2013-08-19 16:09:00,
2013-08-19 11:14:00,74.9,63.2,29.99,SW,215,6.9,6.9,67,0.00,CLR,,0.00,WeatherDisplay:10.37,2013-08-19 16:14:00,
2013-08-19 11:19:00,74.9,63.2,29.98,SSW,207,12.7,12.7,67,0.00,CLR,,0.00,WeatherDisplay:10.37,2013-08-19 16:19:00,
2013-08-19 11:24:00,75.1,63.4,29.98,SSW,213,9.2,9.2,67,0.00,CLR,,0.00,WeatherDisplay:10.37,2013-08-19 16:24:00,
2013-08-19 11:29:00,75.3,63.2,29.98,South,186,12.7,12.7,66,0.00,CLR,,0.00,WeatherDisplay:10.37,2013-08-19 16:29:00,
2013-08-19 11:34:00,75.4,63.2,29.98,South,184,8.1,8.1,66,0.00,CLR,,0.00,WeatherDisplay:10.37,2013-08-19 16:34:00,
2013-08-19 11:39:00,75.8,64.1,29.98,SSW,192,8.0,8.0,67,0.00,CLR,,0.00,WeatherDisplay:10.37,2013-08-19 16:39:00,
2013-08-19 11:44:00,75.4,63.7,29.98,SSW,211,4.0,4.0,67,0.00,CLR,,0.00,WeatherDisplay:10.37,2013-08-19 16:44:00,
2013-08-19 11:49:00,75.4,63.2,29.98,SSW,198,3.5,3.5,66,0.00,CLR,,0.00,WeatherDisplay:10.37,2013-08-19 16:49:00,
2013-08-19 11:54:00,75.6,63.9,29.98,SSW,208,4.6,4.6,67,0.00,CLR,,0.00,WeatherDisplay:10.37,2013-08-19 16:54:00,
2013-08-19 11:59:00,76.0,63.8,29.98,SSW,213,6.0,6.0,66,0.00,CLR,,0.00,WeatherDisplay:10.37,2013-08-19 16:59:00,
2013-08-19 12:04:00,75.8,63.6,29.99,South,183,5.8,5.8,66,0.00,CLR,,0.00,WeatherDisplay:10.37,2013-08-19 17:04:00,
2013-08-19 12:09:00,76.1,64.3,29.99,South,185,3.0,3.0,67,0.00,CLR,,0.00,WeatherDisplay:10.37,2013-08-19 17:09:00,
2013-08-19 12:14:00,76.1,63.9,29.99,SW,228,7.0,7.0,66,0.00,CLR,,0.00,WeatherDisplay:10.37,2013-08-19 17:14:00,
2013-08-19 12:19:00,75.8,63.6,29.98,South,180,10.4,10.4,66,0.00,CLR,,0.00,WeatherDisplay:10.37,2013-08-19 17:19:00,
2013-08-19 12:24:00,76.1,63.9,29.98,SSE,167,8.1,8.1,66,0.00,CLR,,0.00,WeatherDisplay:10.37,2013-08-19 17:24:00,
2013-08-19 12:29:00,76.5,64.3,29.98,SSW,205,12.0,12.0,66,0.00,CLR,,0.00,WeatherDisplay:10.37,2013-08-19 17:29:00,
2013-08-19 12:34:00,77.2,65.0,29.98,South,184,6.9,6.9,66,0.00,CLR,,0.00,WeatherDisplay:10.37,2013-08-19 17:34:00,
2013-08-19 12:39:00,78.3,64.2,29.98,South,174,6.9,6.9,62,0.00,CLR,,0.00,WeatherDisplay:10.37,2013-08-19 17:39:00,
2013-08-19 12:44:00,79.2,65.5,29.98,SSW,198,4.6,4.6,63,0.00,CLR,,0.00,WeatherDisplay:10.37,2013-08-19 17:44:00,
2013-08-19 12:49:00,79.0,63.9,29.98,SW,219,11.5,11.5,60,0.00,CLR,,0.00,WeatherDisplay:10.37,2013-08-19 17:49:00,
2013-08-19 12:54:00,79.4,65.2,29.98,SSE,167,10.4,10.4,62,0.00,CLR,,0.00,WeatherDisplay:10.37,2013-08-19 17:54:00,
2013-08-19 12:59:00,79.2,64.1,29.98,SW,223,11.5,11.5,60,0.00,CLR,,0.00,WeatherDisplay:10.37,2013-08-19 17:59:00,
2013-08-19 13:04:00,79.9,64.8,29.97,SSE,153,8.1,8.1,60,0.00,CLR,,0.00,WeatherDisplay:10.37,2013-08-19 18:04:00,
2013-08-19 13:09:00,80.5,64.9,29.97,SSE,161,10.4,10.4,59,0.00,CLR,,0.00,WeatherDisplay:10.37,2013-08-19 18:09:00,
2013-08-19 13:14:00,81.1,64.4,29.97,SSW,192,10.4,10.4,57,0.00,CLR,,0.00,WeatherDisplay:10.37,2013-08-19 18:14:00,
2013-08-19 13:19:00,80.7,64.5,29.97,SSW,210,11.5,11.5,58,0.00,CLR,,0.00,WeatherDisplay:10.37,2013-08-19 18:19:00,
2013-08-19 13:24:00,81.1,65.4,29.97,SSW,192,8.1,8.1,59,0.00,CLR,,0.00,WeatherDisplay:10.37,2013-08-19 18:24:00,
2013-08-19 13:29:00,81.6,65.4,29.97,SSW,209,12.0,12.0,58,0.00,CLR,,0.00,WeatherDisplay:10.37,2013-08-19 18:29:00,
2013-08-19 13:34:00,81.2,65.0,29.97,SW,234,11.5,11.5,58,0.00,SCT,,0.00,WeatherDisplay:10.37,2013-08-19 18:34:00,
2013-08-19 13:39:00,81.1,65.9,29.97,SW,225,11.5,11.5,60,0.00,SCT,,0.00,WeatherDisplay:10.37,2013-08-19 18:39:00,
2013-08-19 13:44:00,81.6,65.4,29.97,South,189,12.7,12.7,58,0.00,SCT,,0.00,WeatherDisplay:10.37,2013-08-19 18:44:00,
2013-08-19 13:49:00,82.2,66.0,29.96,SSE,167,6.9,6.9,58,0.00,BKN,,0.00,WeatherDisplay:10.37,2013-08-19 18:49:00,
2013-08-19 13:54:00,82.2,66.4,29.96,South,179,5.8,5.8,59,0.00,BKN,,0.00,WeatherDisplay:10.37,2013-08-19 18:54:00,
2013-08-19 13:59:00,83.0,66.7,29.96,South,178,4.6,4.6,58,0.00,BKN,,0.00,WeatherDisplay:10.37,2013-08-19 18:59:00,
2013-08-19 14:04:00,83.2,66.4,29.96,SSW,209,11.5,11.5,57,0.00,SCT,,0.00,WeatherDisplay:10.37,2013-08-19 19:04:00,
2013-08-19 14:09:00,83.4,66.6,29.96,SSW,192,11.5,11.5,57,0.00,SCT,,0.00,WeatherDisplay:10.37,2013-08-19 19:09:00,
2013-08-19 14:14:00,83.8,66.9,29.96,SSW,206,10.0,10.0,57,0.00,SCT,,0.00,WeatherDisplay:10.37,2013-08-19 19:14:00,
2013-08-19 14:19:00,84.3,66.4,29.95,SSE,165,5.8,5.8,55,0.00,SCT,,0.00,WeatherDisplay:10.37,2013-08-19 19:19:00,
2013-08-19 14:24:00,84.3,65.8,29.95,SSW,201,10.4,10.4,54,0.00,SCT,,0.00,WeatherDisplay:10.37,2013-08-19 19:24:00,
2013-08-19 14:29:00,84.7,66.7,29.95,South,180,4.6,4.6,55,0.00,SCT,,0.00,WeatherDisplay:10.37,2013-08-19 19:29:00,
2013-08-19 14:34:00,84.9,65.9,29.95,SSW,198,11.5,11.5,53,0.00,CLR,,0.00,WeatherDisplay:10.37,2013-08-19 19:34:00,
2013-08-19 14:39:00,85.1,66.6,29.95,SW,227,8.1,8.1,54,0.00,CLR,,0.00,WeatherDisplay:10.37,2013-08-19 19:39:00,
2013-08-19 14:44:00,85.3,65.1,29.95,SSW,192,11.5,11.5,51,0.00,CLR,,0.00,WeatherDisplay:10.37,2013-08-19 19:44:00,
2013-08-19 14:49:00,85.3,65.7,29.95,SSW,213,6.9,6.9,52,0.00,CLR,,0.00,WeatherDisplay:10.37,2013-08-19 19:49:00,
2013-08-19 14:54:00,85.9,66.2,29.95,SSW,200,5.8,5.8,52,0.00,CLR,,0.00,WeatherDisplay:10.37,2013-08-19 19:54:00,
2013-08-19 14:59:00,86.3,66.0,29.95,SSW,200,11.5,11.5,51,0.00,CLR,,0.00,WeatherDisplay:10.37,2013-08-19 19:59:00,
2013-08-19 15:04:00,87.0,66.7,29.95,SSW,197,2.0,2.0,51,0.00,CLR,,0.00,WeatherDisplay:10.37,2013-08-19 20:04:00,
2013-08-19 15:09:00,86.7,65.8,29.95,SSE,164,11.5,11.5,50,0.00,CLR,,0.00,WeatherDisplay:10.37,2013-08-19 20:09:00,
2013-08-19 15:14:00,85.7,65.5,29.95,South,172,10.4,10.4,51,0.00,CLR,,0.00,WeatherDisplay:10.37,2013-08-19 20:14:00,
2013-08-19 15:19:00,85.3,65.7,29.95,South,189,10.4,10.4,52,0.00,CLR,,0.00,WeatherDisplay:10.37,2013-08-19 20:19:00,
2013-08-19 15:24:00,85.3,65.1,29.95,South,186,9.2,9.2,51,0.00,CLR,,0.00,WeatherDisplay:10.37,2013-08-19 20:24:00,
2013-08-19 15:29:00,85.1,64.9,29.95,SW,219,17.3,17.3,51,0.00,CLR,,0.00,WeatherDisplay:10.37,2013-08-19 20:29:00,
2013-08-19 15:34:00,85.3,65.1,29.94,SSW,193,11.5,11.5,51,0.00,SCT,,0.00,WeatherDisplay:10.37,2013-08-19 20:34:00,
2013-08-19 15:39:00,85.3,65.1,29.94,SSW,207,11.5,11.5,51,0.00,SCT,,0.00,WeatherDisplay:10.37,2013-08-19 20:39:00,
2013-08-19 15:44:00,85.1,64.4,29.94,South,169,17.3,17.3,50,0.00,SCT,,0.00,WeatherDisplay:10.37,2013-08-19 20:44:00,
2013-08-19 15:49:00,85.3,65.1,29.94,SSW,201,11.5,11.5,51,0.00,SCT,,0.00,WeatherDisplay:10.37,2013-08-19 20:49:00,
2013-08-19 15:54:00,85.3,65.1,29.94,SSW,213,13.8,13.8,51,0.00,SCT,,0.00,WeatherDisplay:10.37,2013-08-19 20:54:00,
2013-08-19 15:59:00,85.7,64.9,29.94,SSW,194,16.1,16.1,50,0.00,SCT,,0.00,WeatherDisplay:10.37,2013-08-19 20:59:00,
2013-08-19 16:04:00,85.7,64.9,29.94,SSW,206,12.7,12.7,50,0.00,SCT,,0.00,WeatherDisplay:10.37,2013-08-19 21:04:00,
2013-08-19 16:09:00,85.3,66.2,29.94,SSW,198,10.4,10.4,53,0.00,SCT,,0.00,WeatherDisplay:10.37,2013-08-19 21:09:00,
2013-08-19 16:14:00,85.3,65.1,29.94,SSE,167,15.0,15.0,51,0.00,SCT,,0.00,WeatherDisplay:10.37,2013-08-19 21:14:00,
2013-08-19 16:19:00,85.5,65.3,29.94,South,186,9.2,9.2,51,0.00,SCT,,0.00,WeatherDisplay:10.37,2013-08-19 21:19:00,
2013-08-19 16:24:00,85.5,64.7,29.94,SW,221,13.8,13.8,50,0.00,SCT,,0.00,WeatherDisplay:10.37,2013-08-19 21:24:00,
2013-08-19 16:29:00,85.3,64.6,29.94,SSE,165,6.9,6.9,50,0.00,SCT,,0.00,WeatherDisplay:10.37,2013-08-19 21:29:00,
2013-08-19 16:34:00,85.5,65.9,29.93,South,175,11.5,11.5,52,0.00,CLR,,0.00,WeatherDisplay:10.37,2013-08-19 21:34:00,
2013-08-19 16:39:00,85.3,65.7,29.93,SSW,195,11.0,11.0,52,0.00,CLR,,0.00,WeatherDisplay:10.37,2013-08-19 21:39:00,
2013-08-19 16:44:00,85.1,65.5,29.93,South,173,9.2,9.2,52,0.00,CLR,,0.00,WeatherDisplay:10.37,2013-08-19 21:44:00,
2013-08-19 16:49:00,84.7,65.1,29.93,SW,229,14.0,14.0,52,0.00,CLR,,0.00,WeatherDisplay:10.37,2013-08-19 21:49:00,
2013-08-19 16:54:00,84.1,65.1,29.93,South,184,12.7,12.7,53,0.00,CLR,,0.00,WeatherDisplay:10.37,2013-08-19 21:54:00,
2013-08-19 16:59:00,84.0,65.6,29.93,South,177,12.7,12.7,54,0.00,CLR,,0.00,WeatherDisplay:10.37,2013-08-19 21:59:00,
2013-08-19 17:04:00,84.5,66.0,29.92,SSW,202,11.5,11.5,54,0.00,CLR,,0.00,WeatherDisplay:10.37,2013-08-19 22:04:00,
2013-08-19 17:09:00,84.1,65.7,29.92,SSW,200,12.7,12.7,54,0.00,CLR,,0.00,WeatherDisplay:10.37,2013-08-19 22:09:00,
2013-08-19 17:14:00,83.8,65.4,29.92,South,169,14.0,14.0,54,0.00,CLR,,0.00,WeatherDisplay:10.37,2013-08-19 22:14:00,
2013-08-19 17:19:00,83.2,65.9,29.92,SSW,196,11.5,11.5,56,0.00,CLR,,0.00,WeatherDisplay:10.37,2013-08-19 22:19:00,
2013-08-19 17:24:00,83.2,65.9,29.92,SW,216,11.5,11.5,56,0.00,CLR,,0.00,WeatherDisplay:10.37,2013-08-19 22:24:00,
2013-08-19 17:29:00,83.4,66.1,29.92,SSW,197,11.5,11.5,56,0.00,CLR,,0.00,WeatherDisplay:10.37,2013-08-19 22:29:00,
2013-08-19 17:34:00,83.8,66.4,29.92,SSW,211,8.0,8.0,56,0.00,SCT,,0.00,WeatherDisplay:10.37,2013-08-19 22:34:00,
2013-08-19 17:39:00,84.1,66.2,29.92,SSW,194,9.0,9.0,55,0.00,SCT,,0.00,WeatherDisplay:10.37,2013-08-19 22:39:00,
2013-08-19 17:44:00,83.4,66.6,29.92,South,180,10.0,10.0,57,0.00,SCT,,0.00,WeatherDisplay:10.37,2013-08-19 22:44:00,
2013-08-19 17:49:00,83.2,66.4,29.92,SSW,199,10.0,10.0,57,0.00,BKN,,0.00,WeatherDisplay:10.37,2013-08-19 22:49:00,
2013-08-19 17:54:00,83.0,66.2,29.92,SW,232,10.4,10.4,57,0.00,BKN,,0.00,WeatherDisplay:10.37,2013-08-19 22:54:00,
2013-08-19 17:59:00,83.0,66.2,29.92,South,178,10.4,10.4,57,0.00,BKN,,0.00,WeatherDisplay:10.37,2013-08-19 22:59:00,
2013-08-19 18:04:00,83.2,66.4,29.92,WSW,247,9.2,9.2,57,0.00,SCT,,0.00,WeatherDisplay:10.37,2013-08-19 23:04:00,
2013-08-19 18:09:00,83.2,66.4,29.92,SW,219,19.6,19.6,57,0.00,SCT,,0.00,WeatherDisplay:10.37,2013-08-19 23:09:00,
2013-08-19 18:14:00,83.0,66.7,29.92,SW,214,9.2,9.2,58,0.00,SCT,,0.00,WeatherDisplay:10.37,2013-08-19 23:14:00,
2013-08-19 18:19:00,83.2,66.4,29.91,SSW,200,14.0,14.0,57,0.00,SCT,,0.00,WeatherDisplay:10.37,2013-08-19 23:19:00,
2013-08-19 18:24:00,83.0,66.2,29.91,SW,222,11.5,11.5,57,0.00,SCT,,0.00,WeatherDisplay:10.37,2013-08-19 23:24:00,
2013-08-19 18:29:00,83.0,66.7,29.91,SW,215,10.4,10.4,58,0.00,SCT,,0.00,WeatherDisplay:10.37,2013-08-19 23:29:00,
2013-08-19 18:34:00,82.8,66.5,29.91,SSE,165,11.5,11.5,58,0.00,SCT,,0.00,WeatherDisplay:10.37,2013-08-19 23:34:00,
2013-08-19 18:39:00,82.6,66.8,29.91,SSW,213,9.0,9.0,59,0.00,SCT,,0.00,WeatherDisplay:10.37,2013-08-19 23:39:00,
2013-08-19 18:44:00,82.4,66.6,29.91,SSW,195,11.5,11.5,59,0.00,SCT,,0.00,WeatherDisplay:10.37,2013-08-19 23:44:00,
2013-08-19 18:49:00,82.2,66.9,29.91,SSW,200,11.5,11.5,60,0.00,CLR,,0.00,WeatherDisplay:10.37,2013-08-19 23:49:00,
2013-08-19 18:54:00,82.0,66.7,29.91,SW,219,10.0,10.0,60,0.00,CLR,,0.00,WeatherDisplay:10.37,2013-08-19 23:54:00,
2013-08-19 18:59:00,82.0,66.7,29.91,SSE,152,7.0,7.0,60,0.00,CLR,,0.00,WeatherDisplay:10.37,2013-08-19 23:59:00,
2013-08-19 19:04:00,81.8,66.6,29.91,SSE,164,10.4,10.4,60,0.00,CLR,,0.00,WeatherDisplay:10.37,2013-08-20 00:04:00,
2013-08-19 19:09:00,81.6,66.4,29.91,SSW,202,8.0,8.0,60,0.00,CLR,,0.00,WeatherDisplay:10.37,2013-08-20 00:09:00,
2013-08-19 19:14:00,81.6,66.4,29.91,SSW,209,12.7,12.7,60,0.00,CLR,,0.00,WeatherDisplay:10.37,2013-08-20 00:14:00,
2013-08-19 19:19:00,81.2,66.5,29.91,SSW,199,6.9,6.9,61,0.00,CLR,,0.00,WeatherDisplay:10.37,2013-08-20 00:19:00,
2013-08-19 19:24:00,81.1,66.8,29.91,SSW,194,9.2,9.2,62,0.00,CLR,,0.00,WeatherDisplay:10.37,2013-08-20 00:24:00,
2013-08-19 19:29:00,80.9,66.7,29.91,South,188,10.0,10.0,62,0.00,CLR,,0.00,WeatherDisplay:10.37,2013-08-20 00:29:00,
2013-08-19 19:34:00,80.7,66.9,29.91,South,190,5.8,5.8,63,0.00,CLR,,0.00,WeatherDisplay:10.37,2013-08-20 00:34:00,
2013-08-19 19:39:00,80.5,66.7,29.91,South,177,6.9,6.9,63,0.00,CLR,,0.00,WeatherDisplay:10.37,2013-08-20 00:39:00,
2013-08-19 19:44:00,80.3,67.0,29.91,South,169,3.5,3.5,64,0.00,CLR,,0.00,WeatherDisplay:10.37,2013-08-20 00:44:00,
2013-08-19 19:49:00,79.9,66.6,29.91,SSW,210,5.8,5.8,64,0.00,CLR,,0.00,WeatherDisplay:10.37,2013-08-20 00:49:00,
2013-08-19 19:54:00,79.8,66.5,29.91,SSW,203,6.9,6.9,64,0.00,CLR,,0.00,WeatherDisplay:10.37,2013-08-20 00:54:00,
2013-08-19 19:59:00,79.6,66.8,29.91,South,174,7.0,7.0,65,0.00,CLR,,0.00,WeatherDisplay:10.37,2013-08-20 00:59:00,
2013-08-19 20:04:00,79.4,66.6,29.91,SSW,199,3.5,3.5,65,0.00,CLR,,0.00,WeatherDisplay:10.37,2013-08-20 01:04:00,
2013-08-19 20:09:00,79.0,66.7,29.91,South,173,6.9,6.9,66,0.00,CLR,,0.00,WeatherDisplay:10.37,2013-08-20 01:09:00,
2013-08-19 20:14:00,78.8,66.5,29.91,South,186,4.0,4.0,66,0.00,CLR,,0.00,WeatherDisplay:10.37,2013-08-20 01:14:00,
2013-08-19 20:19:00,78.6,66.3,29.91,South,180,5.0,5.0,66,0.00,CLR,,0.00,WeatherDisplay:10.37,2013-08-20 01:19:00,
2013-08-19 20:24:00,78.6,66.7,29.91,SW,225,6.9,6.9,67,0.00,CLR,,0.00,WeatherDisplay:10.37,2013-08-20 01:24:00,
2013-08-19 20:29:00,78.5,66.6,29.91,South,188,4.6,4.6,67,0.00,CLR,,0.00,WeatherDisplay:10.37,2013-08-20 01:29:00,
2013-08-19 20:34:00,78.3,66.4,29.91,South,186,4.6,4.6,67,0.00,CLR,,0.00,WeatherDisplay:10.37,2013-08-20 01:34:00,
2013-08-19 20:39:00,78.1,66.7,29.91,South,184,6.9,6.9,68,0.00,CLR,,0.00,WeatherDisplay:10.37,2013-08-20 01:39:00,
2013-08-19 20:44:00,77.9,66.9,29.91,South,184,4.6,4.6,69,0.00,CLR,,0.00,WeatherDisplay:10.37,2013-08-20 01:44:00,
2013-08-19 20:49:00,77.7,66.7,29.92,South,182,3.5,3.5,69,0.00,CLR,,0.00,WeatherDisplay:10.37,2013-08-20 01:49:00,
2013-08-19 20:54:00,77.4,66.8,29.92,South,178,6.0,6.0,70,0.00,CLR,,0.00,WeatherDisplay:10.37,2013-08-20 01:54:00,
2013-08-19 20:59:00,77.0,66.5,29.92,South,175,4.6,4.6,70,0.00,CLR,,0.00,WeatherDisplay:10.37,2013-08-20 01:59:00,
2013-08-19 21:04:00,76.8,66.7,29.92,South,174,4.0,4.0,71,0.00,CLR,,0.00,WeatherDisplay:10.37,2013-08-20 02:04:00,
2013-08-19 21:09:00,76.5,66.8,29.92,South,183,5.8,5.8,72,0.00,CLR,,0.00,WeatherDisplay:10.37,2013-08-20 02:09:00,
2013-08-19 21:14:00,76.3,66.6,29.92,South,175,10.4,10.4,72,0.00,CLR,,0.00,WeatherDisplay:10.37,2013-08-20 02:14:00,
2013-08-19 21:19:00,76.1,66.4,29.93,South,178,5.8,5.8,72,0.00,SCT,,0.00,WeatherDisplay:10.37,2013-08-20 02:19:00,
2013-08-19 21:24:00,76.1,66.4,29.93,SSE,150,9.0,9.0,72,0.00,SCT,,0.00,WeatherDisplay:10.37,2013-08-20 02:24:00,
2013-08-19 21:29:00,76.0,66.3,29.93,South,180,9.2,9.2,72,0.00,SCT,,0.00,WeatherDisplay:10.37,2013-08-20 02:29:00,
2013-08-19 21:34:00,76.0,66.3,29.93,SW,215,9.2,9.2,72,0.00,BKN,,0.00,WeatherDisplay:10.37,2013-08-20 02:34:00,
2013-08-19 21:39:00,76.0,66.3,29.93,SSW,198,5.0,5.0,72,0.00,BKN,,0.00,WeatherDisplay:10.37,2013-08-20 02:39:00,
2013-08-19 21:44:00,75.8,66.1,29.93,South,178,4.6,4.6,72,0.00,BKN,,0.00,WeatherDisplay:10.37,2013-08-20 02:44:00,
2013-08-19 21:49:00,75.6,66.3,29.93,South,178,5.8,5.8,73,0.00,SCT,,0.00,WeatherDisplay:10.37,2013-08-20 02:49:00,
2013-08-19 21:54:00,75.4,66.1,29.93,South,178,4.6,4.6,73,0.00,SCT,,0.00,WeatherDisplay:10.37,2013-08-20 02:54:00,
2013-08-19 21:59:00,75.3,66.0,29.93,SSW,205,5.8,5.8,73,0.00,SCT,,0.00,WeatherDisplay:10.37,2013-08-20 02:59:00,
2013-08-19 22:04:00,75.1,66.2,29.93,South,178,5.0,5.0,74,0.00,CLR,,0.00,WeatherDisplay:10.37,2013-08-20 03:04:00,
2013-08-19 22:09:00,75.1,66.2,29.93,South,183,7.0,7.0,74,0.00,CLR,,0.00,WeatherDisplay:10.37,2013-08-20 03:09:00,
2013-08-19 22:14:00,74.9,66.1,29.93,SSE,168,5.8,5.8,74,0.00,CLR,,0.00,WeatherDisplay:10.37,2013-08-20 03:14:00,
2013-08-19 22:19:00,74.9,66.1,29.93,SSW,194,3.5,3.5,74,0.00,CLR,,0.00,WeatherDisplay:10.37,2013-08-20 03:19:00,
2013-08-19 22:24:00,74.7,65.9,29.93,South,169,5.8,5.8,74,0.00,CLR,,0.00,WeatherDisplay:10.37,2013-08-20 03:24:00,
2013-08-19 22:29:00,74.6,65.8,29.93,South,177,9.2,9.2,74,0.00,CLR,,0.00,WeatherDisplay:10.37,2013-08-20 03:29:00,
2013-08-19 22:34:00,74.4,66.0,29.93,South,180,6.9,6.9,75,0.00,CLR,,0.00,WeatherDisplay:10.37,2013-08-20 03:34:00,
2013-08-19 22:39:00,74.0,65.6,29.93,SSW,195,4.0,4.0,75,0.00,CLR,,0.00,WeatherDisplay:10.37,2013-08-20 03:39:00,
2013-08-19 22:44:00,73.9,65.5,29.93,South,189,6.9,6.9,75,0.00,CLR,,0.00,WeatherDisplay:10.37,2013-08-20 03:44:00,
2013-08-19 22:49:00,73.9,65.9,29.93,South,190,8.1,8.1,76,0.00,CLR,,0.00,WeatherDisplay:10.37,2013-08-20 03:49:00,
2013-08-19 22:54:00,73.7,65.7,29.93,South,186,5.8,5.8,76,0.00,CLR,,0.00,WeatherDisplay:10.37,2013-08-20 03:54:00,
2013-08-19 22:59:00,73.5,65.5,29.93,South,177,4.6,4.6,76,0.00,CLR,,0.00,WeatherDisplay:10.37,2013-08-20 03:59:00,
2013-08-19 23:01:00,73.3,65.3,29.93,South,177,3.5,3.5,76,0.00,CLR,,0.00,WeatherDisplay:10.37,2013-08-20 04:01:00,
2013-08-19 23:06:00,73.2,65.6,29.93,South,170,4.6,4.6,77,0.00,CLR,,0.00,WeatherDisplay:10.37,2013-08-20 04:06:00,
2013-08-19 23:11:00,73.2,65.6,29.93,South,183,4.6,4.6,77,0.00,CLR,,0.00,WeatherDisplay:10.37,2013-08-20 04:11:00,
2013-08-19 23:16:00,73.2,65.6,29.93,SSW,200,4.6,4.6,77,0.00,CLR,,0.00,WeatherDisplay:10.37,2013-08-20 04:16:00,
2013-08-19 23:21:00,73.0,65.4,29.93,SW,216,5.8,5.8,77,0.00,CLR,,0.00,WeatherDisplay:10.37,2013-08-20 04:21:00,
2013-08-19 23:26:00,73.0,65.4,29.93,South,189,6.9,6.9,77,0.00,CLR,,0.00,WeatherDisplay:10.37,2013-08-20 04:26:00,
2013-08-19 23:31:00,72.8,65.2,29.92,SSW,194,10.4,10.4,77,0.00,CLR,,0.00,WeatherDisplay:10.37,2013-08-20 04:31:00,
2013-08-19 23:36:00,72.8,65.2,29.92,SSW,194,5.8,5.8,77,0.00,CLR,,0.00,WeatherDisplay:10.37,2013-08-20 04:36:00,
2013-08-19 23:41:00,72.7,65.1,29.92,South,186,5.8,5.8,77,0.00,CLR,,0.00,WeatherDisplay:10.37,2013-08-20 04:41:00,
2013-08-19 23:46:00,72.7,64.7,29.92,SSW,200,10.4,10.4,76,0.00,SCT,,0.00,WeatherDisplay:10.37,2013-08-20 04:46:00,
2013-08-19 23:51:00,72.8,64.8,29.92,SSW,213,5.8,5.8,76,0.00,SCT,,0.00,WeatherDisplay:10.37,2013-08-20 04:51:00,
2013-08-19 23:56:00,72.8,64.4,29.92,South,180,6.9,6.9,75,0.00,SCT,,0.00,WeatherDisplay:10.37,2013-08-20 04:56:00,